FALCON 9 DEB (48336 NORAD) Tracking and Keplerian Element Data

This shows tracking and keplerian element data for the satellite.

Feedback or suggestion? Click here.




ElementValue
Catalog48336
NameFALCON 9 DEB
Epoch Orbit499
Epoch Day149.10267913
Epoch Year2021
RAAN13.1558
Inclination53.0442
Eccentricity0.0008671
Argument of Perigee263.1944
Mean Anonmoly96.8119
Mean Motion16.47197478
Decay Rate0.09314352
L11 48336U 21036BN 21149.10267913 .09314352 12544-4 16263-3 0 9990
L22 48336 53.0442 13.1558 0008671 263.1944 96.8119 16.47197478 4998

Live tracking and technical data element details for FALCON 9 DEB (NORAD 48336). FALCON 9 DEB can be tracked NOW for your location showing map with azimuth and elevation plus other details from your city location.

Track the satellite on the map from your city or location and see movement details for azimuth, elevation, latitude, longitude, range, height, and movement on the map or in text.







IsCatalogInMostPopularTable: catalog: 48336, numindb: 34
Update: records affected: 1



GetName: 48336 FALCON 9 DEB

Hit Count: updated at: Sat, 31 Jul 2021 15:43:50 GMT